When you browse on this site, cookies collect data to enhance your experience and personalize the content and advertising you see.
Visit our Privacy Policy to learn more. By continuing to use the site, you agree to this use of cookies and data.
  • în România
  • Lista ţărilor
  • Pe 7 zile
  • Temperatura apei
  • Hartă satelitară
  • Meteo pe hartă
  • Widget-uri
  • user-avatar
    Intrare

    Meteo pe oră la Klyuchevoe

    Astăzi, 21 Iulie, Duminică

    Timp Temperatura Precipitaţii Vânt Presiune Umiditate
    00:00 +16°C° 0 mm 2 m/s 747 mmHg 82%
    01:00 +14°C° 0 mm 3 m/s 747 mmHg 82%
    02:00 +14°C° 0 mm 3 m/s 747 mmHg 82%
    03:00 +14°C° 0 mm 3 m/s 747 mmHg 82%
    04:00 +14°C° 0 mm 3 m/s 748 mmHg 82%
    05:00 +14°C° 0 mm 3 m/s 748 mmHg 82%
    06:00 +14°C° 0 mm 3 m/s 748 mmHg 81%
    07:00 +17°C° 0 mm 3 m/s 748 mmHg 77%
    08:00 +18°C° 0 mm 3 m/s 748 mmHg 72%
    09:00 +20°C° 0 mm 4 m/s 748 mmHg 68%
    10:00 +21°C° 0 mm 4 m/s 748 mmHg 64%
    11:00 +22°C° 0 mm 4 m/s 748 mmHg 60%
    12:00 +25°C° 0 mm 4 m/s 748 mmHg 56%
    13:00 +25°C° 0 mm 4 m/s 748 mmHg 55%
    14:00 +25°C° 0 mm 4 m/s 748 mmHg 55%
    15:00 +26°C° 0 mm 4 m/s 747 mmHg 54%
    16:00 +25°C° 0 mm 4 m/s 747 mmHg 57%
    17:00 +25°C° 0 mm 3 m/s 747 mmHg 60%
    18:00 +25°C° 0 mm 3 m/s 747 mmHg 64%
    19:00 +22°C° 0 mm 3 m/s 747 mmHg 68%
    20:00 +20°C° 0 mm 2 m/s 747 mmHg 72%
    21:00 +19°C° 0 mm 2 m/s 747 mmHg 75%
    22:00 +18°C° 0 mm 2 m/s 747 mmHg 78%
    23:00 +17°C° 0 mm 2 m/s 747 mmHg 82%

    Mâine, 22 Iulie, Luni

    Timp Temperatura Precipitaţii Vânt Presiune Umiditate
    00:00 +17°C° 0 mm 2 m/s 747 mmHg 85%
    01:00 +16°C° 0 mm 2 m/s 747 mmHg 87%
    02:00 +16°C° 0 mm 2 m/s 747 mmHg 90%
    03:00 +15°C° 0 mm 2 m/s 747 mmHg 93%
    04:00 +16°C° 0 mm 2 m/s 747 mmHg 93%
    05:00 +16°C° 0 mm 2 m/s 747 mmHg 92%
    06:00 +16°C° 0 mm 1 m/s 747 mmHg 91%
    07:00 +19°C° 0 mm 1 m/s 747 mmHg 85%
    08:00 +21°C° 0 mm 1 m/s 747 mmHg 79%
    09:00 +22°C° 0 mm 1 m/s 748 mmHg 72%
    10:00 +23°C° 0 mm 1 m/s 747 mmHg 68%
    11:00 +24°C° 0 mm 1 m/s 747 mmHg 63%
    12:00 +25°C° 0 mm 2 m/s 747 mmHg 58%
    13:00 +26°C° 0 mm 2 m/s 747 mmHg 56%
    14:00 +26°C° 0 mm 2 m/s 747 mmHg 54%
    15:00 +27°C° 0 mm 2 m/s 746 mmHg 53%
    16:00 +27°C° 0 mm 2 m/s 746 mmHg 55%
    17:00 +26°C° 0 mm 1 m/s 746 mmHg 58%
    18:00 +26°C° 0 mm 1 m/s 746 mmHg 61%
    19:00 +24°C° 0 mm 1 m/s 746 mmHg 65%
    20:00 +23°C° 0 mm 1 m/s 746 mmHg 69%
    21:00 +19°C° 0 mm 0 m/s 745 mmHg 73%
    22:00 +20°C° 0 mm 1 m/s 745 mmHg 73%
    23:00 +20°C° 0 mm 1 m/s 745 mmHg 73%

    Poimâine, 23 Iulie, Marţi

    Timp Temperatura Precipitaţii Vânt Presiune Umiditate
    00:00 +19°C° 0 mm 2 m/s 745 mmHg 74%
    01:00 +19°C° 0 mm 2 m/s 745 mmHg 73%
    02:00 +19°C° 0 mm 3 m/s 744 mmHg 72%
    03:00 +19°C° 0 mm 3 m/s 744 mmHg 71%
    04:00 +18°C° 0.8 mm 3 m/s 744 mmHg 78%
    05:00 +18°C° 0.8 mm 2 m/s 744 mmHg 84%
    06:00 +17°C° 0.8 mm 2 m/s 744 mmHg 91%
    07:00 +18°C° 0.6 mm 3 m/s 743 mmHg 90%
    08:00 +18°C° 0.6 mm 3 m/s 743 mmHg 90%
    09:00 +19°C° 0.6 mm 4 m/s 743 mmHg 89%
    10:00 +20°C° 0.1 mm 4 m/s 743 mmHg 87%
    11:00 +21°C° 0.1 mm 4 m/s 743 mmHg 84%
    12:00 +21°C° 0.1 mm 4 m/s 743 mmHg 82%
    13:00 +22°C° 1.1 mm 4 m/s 743 mmHg 81%
    14:00 +24°C° 1.1 mm 3 m/s 743 mmHg 79%
    15:00 +25°C° 1.1 mm 3 m/s 743 mmHg 78%
    16:00 +24°C° 1.3 mm 3 m/s 743 mmHg 80%
    17:00 +24°C° 1.3 mm 2 m/s 743 mmHg 82%
    18:00 +24°C° 1.3 mm 1 m/s 743 mmHg 84%
    19:00 +23°C° 0.5 mm 2 m/s 743 mmHg 87%
    20:00 +21°C° 0.5 mm 2 m/s 743 mmHg 90%
    21:00 +20°C° 0.5 mm 2 m/s 742 mmHg 93%
    22:00 +19°C° 0.3 mm 2 m/s 743 mmHg 94%
    23:00 +19°C° 0.3 mm 3 m/s 743 mmHg 95%

    24 Iulie, Miercuri

    Timp Temperatura Precipitaţii Vânt Presiune Umiditate
    00:00 +19°C° 0.3 mm 3 m/s 743 mmHg 96%
    01:00 +18°C° 0 mm 2 m/s 743 mmHg 97%
    02:00 +18°C° 0 mm 2 m/s 743 mmHg 97%
    03:00 +18°C° 0 mm 2 m/s 743 mmHg 97%
    04:00 +18°C° 0 mm 2 m/s 743 mmHg 97%
    05:00 +19°C° 0 mm 1 m/s 743 mmHg 97%
    06:00 +19°C° 0 mm 1 m/s 743 mmHg 97%
    07:00 +19°C° 0 mm 1 m/s 743 mmHg 96%
    08:00 +20°C° 0 mm 1 m/s 743 mmHg 95%
    09:00 +20°C° 0 mm 1 m/s 743 mmHg 95%
    10:00 +20°C° 0.3 mm 1 m/s 744 mmHg 91%
    11:00 +21°C° 0.3 mm 1 m/s 744 mmHg 88%
    12:00 +22°C° 0.3 mm 1 m/s 744 mmHg 85%
    13:00 +22°C° 0.1 mm 1 m/s 745 mmHg 86%
    14:00 +20°C° 0.1 mm 2 m/s 745 mmHg 88%
    15:00 +20°C° 0.1 mm 2 m/s 745 mmHg 89%
    16:00 +20°C° 0 mm 2 m/s 745 mmHg 88%
    17:00 +21°C° 0 mm 2 m/s 745 mmHg 87%
    18:00 +21°C° 0 mm 2 m/s 745 mmHg 87%
    19:00 +20°C° 0.1 mm 2 m/s 745 mmHg 89%
    20:00 +20°C° 0.1 mm 2 m/s 745 mmHg 92%
    21:00 +19°C° 0.1 mm 2 m/s 745 mmHg 95%
    22:00 +19°C° 0.3 mm 3 m/s 745 mmHg 95%
    23:00 +18°C° 0.3 mm 3 m/s 746 mmHg 95%

    25 Iulie, Joi

    Timp Temperatura Precipitaţii Vânt Presiune Umiditate
    00:00 +18°C° 0.3 mm 3 m/s 746 mmHg 96%
    01:00 +18°C° 0.2 mm 3 m/s 746 mmHg 96%
    02:00 +18°C° 0.2 mm 3 m/s 746 mmHg 96%
    03:00 +18°C° 0.2 mm 2 m/s 745 mmHg 97%
    04:00 +17°C° 0.6 mm 3 m/s 746 mmHg 97%
    05:00 +17°C° 0.6 mm 3 m/s 746 mmHg 97%
    06:00 +17°C° 0.6 mm 4 m/s 746 mmHg 97%
    07:00 +17°C° 0.7 mm 4 m/s 746 mmHg 97%
    08:00 +17°C° 0.7 mm 4 m/s 746 mmHg 96%
    09:00 +17°C° 0.7 mm 4 m/s 746 mmHg 96%
    10:00 +18°C° 0.1 mm 4 m/s 746 mmHg 93%
    11:00 +20°C° 0.1 mm 4 m/s 747 mmHg 91%
    12:00 +21°C° 0.1 mm 4 m/s 747 mmHg 88%
    13:00 +21°C° 0.7 mm 4 m/s 747 mmHg 88%
    14:00 +20°C° 0.7 mm 3 m/s 747 mmHg 88%
    15:00 +20°C° 0.7 mm 3 m/s 746 mmHg 88%
    16:00 +20°C° 0.3 mm 3 m/s 746 mmHg 88%
    17:00 +20°C° 0.3 mm 3 m/s 746 mmHg 89%
    18:00 +19°C° 0.3 mm 3 m/s 746 mmHg 89%
    19:00 +19°C° 0.1 mm 3 m/s 746 mmHg 90%
    20:00 +19°C° 0.1 mm 2 m/s 746 mmHg 91%
    21:00 +18°C° 0.1 mm 2 m/s 747 mmHg 92%
    22:00 +18°C° 0 mm 2 m/s 746 mmHg 93%
    23:00 +18°C° 0 mm 3 m/s 746 mmHg 94%

    26 Iulie, Vineri

    Timp Temperatura Precipitaţii Vânt Presiune Umiditate
    00:00 +18°C° 0 mm 3 m/s 746 mmHg 95%
    01:00 +18°C° 0.1 mm 3 m/s 746 mmHg 93%
    02:00 +18°C° 0.1 mm 3 m/s 746 mmHg 92%
    03:00 +18°C° 0.1 mm 4 m/s 746 mmHg 91%
    04:00 +18°C° 0 mm 4 m/s 746 mmHg 91%
    05:00 +18°C° 0 mm 4 m/s 746 mmHg 91%
    06:00 +18°C° 0 mm 4 m/s 746 mmHg 90%
    07:00 +18°C° 0.1 mm 4 m/s 746 mmHg 90%
    08:00 +19°C° 0.1 mm 3 m/s 746 mmHg 89%
    09:00 +19°C° 0.1 mm 3 m/s 746 mmHg 88%
    10:00 +20°C° 0 mm 3 m/s 746 mmHg 85%
    11:00 +21°C° 0 mm 3 m/s 746 mmHg 82%
    12:00 +22°C° 0 mm 3 m/s 746 mmHg 78%
    13:00 +24°C° 0.1 mm 3 m/s 745 mmHg 74%
    14:00 +25°C° 0.1 mm 4 m/s 745 mmHg 70%
    15:00 +26°C° 0.1 mm 4 m/s 745 mmHg 66%
    16:00 +26°C° 0.1 mm 4 m/s 744 mmHg 68%
    17:00 +25°C° 0.1 mm 3 m/s 744 mmHg 70%
    18:00 +25°C° 0.1 mm 3 m/s 744 mmHg 72%
    19:00 +22°C° 0 mm 4 m/s 744 mmHg 75%
    20:00 +21°C° 0 mm 4 m/s 744 mmHg 79%
    21:00 +19°C° 0 mm 4 m/s 744 mmHg 83%
    22:00 +18°C° 0 mm 4 m/s 744 mmHg 83%
    23:00 +17°C° 0 mm 4 m/s 744 mmHg 83%
    Arată mai mult